contact:dominique.lefevre@mio.osupytheas.fr, maurice.libes@osupytheas.fr, didier.mallarino@osupytheas.fr
Project:EMSO http://www.emso-fr.org/EMSO-France
Depth: 2436.0 m
Title:EMSO Ligure Ouest : Data MII capteur AQUADOPP
Date,Latitude,Longitude,X_East,Y_North,Z_Up,Amplitude_X,Amplitude_Y,Amplitude_Z,Batterie,SoundSpeed,Heading,Pitch,Roll,Pressure,TIS,Speed,Direction
, degrees North, degrees East, m.s-1, m.s-1,m.s-1, 1, 1, 1, Volt, m.s-1, degree, degree, degree, dbar, degree_C, m.s-1, degree
2023-03-24T15:40:03,42.805,6.029,0.03,0.014,0.016,103.0,108.0,101.0,13.4,1505.2,339.1,-0.8,1.8,2471.19,13.29,0.033,65.0
2023-03-24T15:43:03,42.805,6.029,0.08,-0.006,0.048,103.0,107.0,101.0,13.4,1505.2,338.5,-0.8,1.8,2471.199,13.29,0.08,94.3
2023-03-24T15:46:03,42.805,6.029,0.048,0.005,0.006,102.0,108.0,101.0,13.4,1505.2,335.7,-0.7,1.8,2471.192,13.29,0.048,84.1
2023-03-24T15:49:03,42.805,6.029,0.017,0.01,0.031,103.0,106.0,101.0,13.4,1505.2,324.0,-0.7,1.8,2471.195,13.29,0.019,59.5
2023-03-24T15:52:03,42.805,6.029,0.035,0.008,0.004,101.0,109.0,101.0,13.4,1505.2,340.9,-0.8,1.8,2471.239,13.29,0.035,77.1
2023-03-24T15:55:03,42.805,6.029,0.076,0.032,0.019,102.0,107.0,101.0,13.3,1505.2,321.1,-0.8,1.8,2471.177,13.29,0.082,67.2
2023-03-24T15:58:03,42.805,6.029,0.083,0.043,0.066,104.0,109.0,102.0,13.3,1505.2,316.8,-0.7,1.8,2471.19,13.29,0.093,62.6
2023-03-24T16:04:03,42.805,6.029,0.077,-0.02,-0.017,102.0,108.0,102.0,13.4,1505.2,344.2,-0.7,1.8,2471.261,13.28,0.079,104.6
2023-03-24T16:07:03,42.805,6.029,0.062,0.001,-0.034,103.0,106.0,101.0,13.3,1505.2,317.8,-0.8,1.8,2471.245,13.28,0.062,89.1
2023-03-24T16:10:03,42.805,6.029,0.076,0.018,0.003,102.0,108.0,100.0,13.4,1505.2,326.0,-0.8,1.8,2471.227,13.28,0.078,76.7
2023-03-24T16:13:03,42.805,6.029,0.048,0.004,-0.005,102.0,107.0,102.0,13.4,1505.2,323.1,-0.8,1.8,2471.189,13.28,0.048,85.2
2023-03-24T16:16:03,42.805,6.029,0.063,-0.018,-0.028,102.0,107.0,102.0,13.4,1505.2,337.3,-0.8,1.8,2471.214,13.28,0.065,105.9
2023-03-24T16:19:03,42.805,6.029,0.07,0.01,0.018,102.0,108.0,101.0,13.3,1505.2,316.2,-0.8,1.8,2471.21,13.28,0.07,81.9
2023-03-24T16:22:03,42.805,6.029,0.089,0.025,0.062,103.0,108.0,101.0,13.3,1505.2,328.0,-0.8,1.9,2471.182,13.28,0.092,74.3
2023-03-24T16:25:03,42.805,6.029,0.055,-0.002,0.007,102.0,109.0,101.0,13.4,1505.2,328.6,-0.7,1.8,2471.164,13.28,0.055,92.1
2023-03-24T16:28:03,42.805,6.029,0.05,0.007,0.012,102.0,107.0,101.0,13.4,1505.2,341.2,-0.8,1.8,2471.204,13.28,0.05,82.0
2023-03-24T16:31:03,42.805,6.029,0.04,0.021,0.016,102.0,109.0,100.0,13.4,1505.2,318.0,-0.8,1.8,2471.205,13.28,0.045,62.3
2023-03-24T16:34:03,42.805,6.029,0.092,-0.005,0.018,101.0,108.0,100.0,13.4,1505.2,329.2,-0.7,1.8,2471.176,13.28,0.092,93.1
2023-03-24T16:37:03,42.805,6.029,0.085,0.007,0.016,101.0,108.0,101.0,13.4,1505.2,340.6,-0.7,1.8,2471.188,13.28,0.085,85.3
2023-03-24T16:40:03,42.805,6.029,0.075,0.02,0.002,102.0,107.0,102.0,13.4,1505.2,325.4,-0.7,1.8,2471.165,13.28,0.077,75.1
2023-03-24T16:43:03,42.805,6.029,0.105,-0.005,0.028,103.0,107.0,102.0,13.4,1505.2,335.3,-0.8,1.8,2471.202,13.28,0.105,92.7
2023-03-24T16:46:03,42.805,6.029,0.086,0.031,0.016,102.0,107.0,102.0,13.3,1505.2,320.7,-0.8,1.8,2471.157,13.28,0.091,70.2
2023-03-24T16:49:03,42.805,6.029,0.081,0.004,0.025,102.0,107.0,101.0,13.4,1505.2,335.2,-0.8,1.8,2471.185,13.28,0.081,87.2
2023-03-24T16:52:03,42.805,6.029,0.112,0.009,0.052,103.0,107.0,101.0,13.3,1505.2,332.2,-0.8,1.8,2471.178,13.28,0.112,85.4
2023-03-24T16:55:03,42.805,6.029,0.059,0.012,0.041,102.0,107.0,102.0,13.4,1505.2,334.8,-0.8,1.8,2471.192,13.28,0.06,78.5
2023-03-24T16:58:03,42.805,6.029,0.0,-0.001,-0.019,103.0,107.0,101.0,13.4,1505.2,325.3,-0.7,1.8,2471.182,13.28,0.001,180.0
2023-03-24T17:04:03,42.805,6.029,0.055,-0.005,-0.016,103.0,108.0,102.0,13.4,1505.2,332.4,-0.7,1.8,2471.245,13.28,0.055,95.2
2023-03-24T17:07:03,42.805,6.029,0.028,-0.007,-0.007,103.0,107.0,102.0,13.4,1505.2,342.2,-0.8,1.8,2471.263,13.28,0.028,104.0
2023-03-24T17:10:03,42.805,6.029,0.057,0.015,0.011,102.0,108.0,101.0,13.3,1505.2,324.7,-0.8,1.8,2471.214,13.28,0.058,75.3
2023-03-24T17:13:03,42.805,6.029,0.047,-0.001,-0.004,104.0,107.0,103.0,13.3,1505.2,324.4,-0.8,1.8,2471.206,13.28,0.047,91.2
2023-03-24T17:16:03,42.805,6.029,0.053,0.005,-0.004,103.0,106.0,101.0,13.3,1505.2,341.8,-0.8,1.8,2471.245,13.28,0.053,84.6
2023-03-24T17:19:03,42.805,6.029,0.04,0.003,-0.004,102.0,106.0,101.0,13.3,1505.2,327.1,-0.8,1.8,2471.225,13.28,0.04,85.7
2023-03-24T17:22:03,42.805,6.029,0.051,0.013,-0.002,101.0,108.0,102.0,13.4,1505.2,333.4,-0.7,1.8,2471.244,13.28,0.052,75.7
2023-03-24T17:25:03,42.805,6.029,0.06,0.002,0.0,102.0,110.0,102.0,13.4,1505.2,317.8,-0.8,1.8,2471.267,13.28,0.06,88.1
2023-03-24T17:28:03,42.805,6.029,0.05,0.008,0.0,103.0,106.0,101.0,13.4,1505.2,330.2,-0.8,1.8,2471.259,13.28,0.05,80.9
2023-03-24T17:31:03,42.805,6.029,0.061,0.006,0.019,103.0,108.0,101.0,13.4,1505.2,343.7,-0.7,1.8,2471.182,13.28,0.061,84.4
2023-03-24T17:34:03,42.805,6.029,0.054,0.004,0.008,102.0,107.0,101.0,13.3,1505.2,321.3,-0.8,1.8,2471.202,13.28,0.054,85.8
2023-03-24T17:37:03,42.805,6.029,0.042,-0.006,-0.025,104.0,109.0,101.0,13.4,1505.2,329.3,-0.7,1.8,2471.21,13.28,0.042,98.1
2023-03-24T17:40:03,42.805,6.029,0.044,0.022,-0.012,103.0,107.0,101.0,13.4,1505.2,317.6,-0.7,1.8,2471.254,13.28,0.049,63.4
2023-03-24T17:43:03,42.805,6.029,0.066,0.032,0.005,103.0,105.0,102.0,13.4,1505.2,321.7,-0.8,1.8,2471.237,13.28,0.073,64.1
2023-03-24T17:46:03,42.805,6.029,0.069,-0.006,-0.005,103.0,107.0,102.0,13.4,1505.2,334.4,-0.8,1.8,2471.227,13.28,0.069,95.0
2023-03-24T17:49:03,42.805,6.029,0.112,0.006,-0.006,103.0,105.0,102.0,13.4,1505.2,320.0,-0.8,1.9,2471.201,13.28,0.112,86.9
2023-03-24T17:52:03,42.805,6.029,0.076,0.006,0.037,102.0,107.0,102.0,13.4,1505.2,329.5,-0.8,1.8,2471.26,13.28,0.076,85.5
2023-03-24T17:55:03,42.805,6.029,0.048,0.004,0.048,104.0,106.0,102.0,13.3,1505.2,340.2,-0.8,1.8,2471.272,13.28,0.048,85.2
2023-03-24T17:58:03,42.805,6.029,0.05,0.001,-0.018,102.0,107.0,102.0,13.4,1505.2,323.1,-0.7,1.8,2471.25,13.28,0.05,88.9
2023-03-24T18:04:03,42.805,6.029,0.079,-0.008,0.042,104.0,108.0,102.0,13.4,1505.2,340.2,-0.8,1.8,2471.324,13.28,0.079,95.8
2023-03-24T18:07:03,42.805,6.029,0.094,0.004,0.03,103.0,108.0,101.0,13.4,1505.2,332.6,-0.8,1.8,2471.313,13.28,0.094,87.6
2023-03-24T18:10:03,42.805,6.029,0.077,-0.01,0.015,101.0,108.0,103.0,13.4,1505.2,333.8,-0.8,1.8,2471.297,13.28,0.077,97.4
2023-03-24T18:13:03,42.805,6.029,0.052,-0.008,0.011,103.0,106.0,101.0,13.4,1505.2,339.8,-0.8,1.8,2471.32,13.28,0.052,98.7
2023-03-24T18:16:03,42.805,6.029,0.038,-0.009,0.025,104.0,106.0,101.0,13.3,1505.2,336.8,-0.8,1.9,2471.285,13.28,0.039,103.3
2023-03-24T18:19:03,42.805,6.029,0.062,0.018,0.035,104.0,106.0,102.0,13.4,1505.2,331.3,-0.8,1.8,2471.286,13.28,0.064,73.8
2023-03-24T18:22:03,42.805,6.029,0.071,0.004,0.024,103.0,106.0,103.0,13.4,1505.2,324.4,-0.8,1.8,2471.302,13.28,0.071,86.8
2023-03-24T18:25:03,42.805,6.029,0.079,0.008,0.009,104.0,107.0,102.0,13.3,1505.2,319.5,-0.7,1.8,2471.302,13.28,0.079,84.2
2023-03-24T18:28:03,42.805,6.029,0.066,0.015,0.018,102.0,107.0,102.0,13.4,1505.2,325.8,-0.7,1.8,2471.285,13.28,0.067,77.2
2023-03-24T18:31:03,42.805,6.029,0.062,-0.004,0.021,101.0,108.0,102.0,13.4,1505.2,333.4,-0.7,1.8,2471.291,13.28,0.062,93.7
2023-03-24T18:34:03,42.805,6.029,0.07,0.014,0.016,103.0,105.0,102.0,13.4,1505.2,317.8,-0.8,1.8,2471.262,13.28,0.071,78.7
2023-03-24T18:37:03,42.805,6.029,0.066,-0.019,0.007,102.0,107.0,102.0,13.4,1505.2,327.5,-0.8,1.8,2471.292,13.28,0.068,106.1
2023-03-24T18:40:03,42.805,6.029,0.054,0.014,0.061,104.0,107.0,102.0,13.4,1505.2,329.4,-0.8,1.8,2471.29,13.28,0.055,75.5
2023-03-24T18:43:03,42.805,6.029,0.084,0.011,0.031,102.0,107.0,102.0,13.4,1505.2,326.5,-0.8,1.9,2471.314,13.28,0.084,82.5
2023-03-24T18:46:03,42.805,6.029,0.039,0.018,0.003,103.0,106.0,103.0,13.3,1505.2,322.7,-0.8,1.8,2471.284,13.28,0.042,65.2
2023-03-24T18:49:03,42.805,6.029,0.058,-0.004,-0.02,103.0,107.0,102.0,13.3,1505.2,328.2,-0.8,1.8,2471.298,13.28,0.058,93.9
2023-03-24T18:52:03,42.805,6.029,0.062,0.0,0.018,104.0,107.0,102.0,13.4,1505.2,324.5,-0.7,1.8,2471.324,13.28,0.061,90.0
2023-03-24T18:55:03,42.805,6.029,0.045,-0.001,-0.015,103.0,106.0,102.0,13.4,1505.2,340.5,-0.8,1.8,2471.284,13.28,0.045,91.3
2023-03-24T18:58:03,42.805,6.029,0.036,0.002,-0.018,103.0,107.0,102.0,13.4,1505.2,318.6,-0.8,1.8,2471.288,13.28,0.036,86.8
2023-03-24T19:04:03,42.805,6.029,0.113,0.01,0.043,103.0,106.0,101.0,13.4,1505.2,326.0,-0.8,1.8,2471.353,13.28,0.113,84.9
2023-03-24T19:07:03,42.805,6.029,0.081,-0.002,0.041,100.0,107.0,102.0,13.4,1505.2,339.1,-0.7,1.8,2471.376,13.28,0.081,91.4
2023-03-24T19:10:03,42.805,6.029,0.044,0.0,-0.018,101.0,107.0,102.0,13.4,1505.2,324.3,-0.8,1.8,2471.441,13.28,0.044,90.0
2023-03-24T19:13:03,42.805,6.029,0.022,0.026,0.008,102.0,107.0,102.0,13.4,1505.2,323.5,-0.7,1.8,2471.362,13.28,0.034,40.2
2023-03-24T19:16:03,42.805,6.029,0.064,0.028,0.036,102.0,106.0,101.0,13.3,1505.2,327.2,-0.8,1.8,2471.38,13.28,0.069,66.4
2023-03-24T19:19:03,42.805,6.029,0.047,0.028,0.008,101.0,108.0,102.0,13.4,1505.2,326.3,-0.8,1.8,2471.342,13.28,0.054,59.2
2023-03-24T19:22:03,42.805,6.029,0.081,0.004,0.03,103.0,108.0,102.0,13.4,1505.2,330.9,-0.8,1.8,2471.37,13.28,0.081,87.2
2023-03-24T19:25:03,42.805,6.029,0.049,0.022,-0.001,102.0,107.0,102.0,13.4,1505.2,319.9,-0.8,1.8,2471.366,13.28,0.053,65.8
2023-03-24T19:28:03,42.805,6.029,0.057,0.001,-0.016,103.0,107.0,102.0,13.4,1505.2,336.1,-0.7,1.8,2471.367,13.28,0.057,89.0
2023-03-24T19:31:03,42.805,6.029,0.071,0.005,0.036,103.0,107.0,102.0,13.3,1505.2,329.3,-0.7,1.8,2471.338,13.28,0.071,86.0
2023-03-24T19:34:03,42.805,6.029,0.071,0.009,0.032,103.0,108.0,102.0,13.4,1505.2,324.1,-0.8,1.8,2471.36,13.28,0.071,82.8
2023-03-24T19:37:03,42.805,6.029,0.059,0.016,-0.006,102.0,107.0,101.0,13.3,1505.2,340.2,-0.8,1.8,2471.338,13.28,0.061,74.8
2023-03-24T19:40:03,42.805,6.029,0.066,0.007,0.01,101.0,107.0,102.0,13.4,1505.2,318.5,-0.8,1.8,2471.348,13.28,0.066,83.9
2023-03-24T19:43:03,42.805,6.029,0.027,0.01,-0.028,103.0,108.0,101.0,13.4,1505.2,323.3,-0.8,1.8,2471.334,13.28,0.028,69.7
2023-03-24T19:46:03,42.805,6.029,0.069,0.011,0.031,101.0,108.0,102.0,13.4,1505.2,328.3,-0.8,1.8,2471.363,13.28,0.069,80.9
2023-03-24T19:49:03,42.805,6.029,0.028,0.011,0.031,103.0,107.0,102.0,13.4,1505.2,340.6,-0.8,1.8,2471.315,13.28,0.03,68.6
2023-03-24T19:52:03,42.805,6.029,0.058,0.008,0.055,103.0,106.0,102.0,13.4,1505.2,325.7,-0.8,1.8,2471.377,13.28,0.058,82.2
2023-03-24T19:55:03,42.805,6.029,0.067,0.008,0.018,102.0,106.0,101.0,13.4,1505.2,324.6,-0.8,1.8,2471.358,13.28,0.067,83.2
2023-03-24T19:58:03,42.805,6.029,0.044,0.003,-0.019,102.0,107.0,102.0,13.4,1505.2,331.3,-0.8,1.8,2471.367,13.28,0.044,86.1
2023-03-24T20:04:03,42.805,6.029,0.043,-0.022,-0.016,102.0,109.0,102.0,13.4,1505.2,341.2,-0.8,1.8,2471.401,13.28,0.048,117.1
2023-03-24T20:07:03,42.805,6.029,0.055,0.026,0.037,104.0,107.0,101.0,13.3,1505.2,316.8,-0.8,1.8,2471.437,13.28,0.06,64.7
2023-03-24T20:10:03,42.805,6.029,0.047,0.002,-0.031,103.0,105.0,103.0,13.3,1505.2,333.0,-0.7,1.8,2471.392,13.28,0.047,87.6
2023-03-24T20:13:03,42.805,6.029,0.064,-0.003,0.049,103.0,106.0,102.0,13.4,1505.2,341.5,-0.8,1.8,2471.391,13.28,0.064,92.7
2023-03-24T20:16:03,42.805,6.029,0.05,0.005,0.025,103.0,108.0,101.0,13.3,1505.2,318.9,-0.8,1.8,2471.386,13.28,0.05,84.3
2023-03-24T20:19:03,42.805,6.029,0.063,0.0,0.011,101.0,108.0,102.0,13.4,1505.2,330.5,-0.8,1.8,2471.408,13.28,0.062,90.0
2023-03-24T20:22:03,42.805,6.029,0.061,-0.016,0.009,102.0,107.0,102.0,13.4,1505.2,336.9,-0.7,1.8,2471.348,13.28,0.063,104.7
2023-03-24T20:25:03,42.805,6.029,0.022,0.02,0.013,102.0,106.0,102.0,13.3,1505.2,324.2,-0.7,1.8,2471.389,13.28,0.029,47.7
2023-03-24T20:28:03,42.805,6.029,0.034,0.024,-0.001,103.0,108.0,102.0,13.3,1505.2,329.4,-0.7,1.8,2471.416,13.28,0.041,54.8
2023-03-24T20:31:03,42.805,6.029,0.082,0.006,0.017,102.0,109.0,102.0,13.3,1505.2,325.8,-0.8,1.8,2471.377,13.28,0.082,85.8
2023-03-24T20:34:03,42.805,6.029,0.029,0.002,-0.017,102.0,106.0,101.0,13.4,1505.2,335.9,-0.8,1.8,2471.404,13.28,0.029,86.1
2023-03-24T20:37:03,42.805,6.029,0.026,0.028,0.021,103.0,107.0,102.0,13.4,1505.2,319.0,-0.7,1.8,2471.368,13.28,0.038,42.9
2023-03-24T20:40:03,42.805,6.029,0.029,0.008,0.011,103.0,107.0,102.0,13.3,1505.2,324.9,-0.8,1.8,2471.385,13.28,0.03,74.6
2023-03-24T20:43:03,42.805,6.029,0.023,-0.002,0.009,103.0,107.0,102.0,13.4,1505.2,324.9,-0.8,1.8,2471.386,13.29,0.023,95.0
2023-03-24T20:46:03,42.805,6.029,0.06,0.02,0.009,103.0,107.0,103.0,13.4,1505.2,327.4,-0.8,1.8,2471.407,13.28,0.063,71.6
2023-03-24T20:49:03,42.805,6.029,0.073,0.019,0.049,104.0,108.0,102.0,13.3,1505.2,329.9,-0.8,1.8,2471.353,13.28,0.075,75.4
2023-03-24T20:52:03,42.805,6.029,0.063,0.005,0.002,103.0,108.0,101.0,13.4,1505.2,319.7,-0.8,1.8,2471.38,13.29,0.063,85.5
2023-03-24T20:55:03,42.805,6.029,0.026,-0.011,-0.013,103.0,108.0,102.0,13.3,1505.2,321.8,-0.7,1.8,2471.377,13.29,0.028,112.9
2023-03-24T20:58:03,42.805,6.029,0.091,0.012,0.052,103.0,108.0,102.0,13.4,1505.2,323.5,-0.8,1.8,2471.39,13.29,0.091,82.5
2023-03-24T21:04:03,42.805,6.029,0.042,-0.005,0.01,104.0,106.0,102.0,13.3,1505.2,328.1,-0.7,1.8,2471.429,13.28,0.042,96.8
2023-03-24T21:07:03,42.805,6.029,0.06,-0.007,-0.017,103.0,106.0,102.0,13.4,1505.2,327.6,-0.8,1.8,2471.435,13.28,0.06,96.7
2023-03-24T21:10:03,42.805,6.029,0.038,0.007,0.005,103.0,109.0,102.0,13.3,1505.2,341.2,-0.8,1.8,2471.418,13.28,0.038,79.6
2023-03-24T21:13:03,42.805,6.029,0.077,-0.002,0.028,102.0,107.0,103.0,13.3,1505.2,330.2,-0.8,1.8,2471.398,13.28,0.077,91.5
2023-03-24T21:16:03,42.805,6.029,0.065,0.003,-0.004,102.0,107.0,102.0,13.4,1505.2,323.3,-0.8,1.8,2471.402,13.28,0.065,87.4
2023-03-24T21:19:03,42.805,6.029,0.034,-0.005,-0.026,104.0,106.0,103.0,13.3,1505.2,340.6,-0.8,1.8,2471.382,13.28,0.034,98.4
2023-03-24T21:22:03,42.805,6.029,0.055,-0.002,-0.013,104.0,107.0,103.0,13.4,1505.2,320.3,-0.7,1.8,2471.393,13.28,0.055,92.1
2023-03-24T21:25:03,42.805,6.029,0.054,0.006,0.026,104.0,107.0,103.0,13.4,1505.2,325.7,-0.8,1.8,2471.391,13.28,0.054,83.7
2023-03-24T21:28:03,42.805,6.029,0.051,0.021,0.024,103.0,107.0,102.0,13.4,1505.2,330.6,-0.8,1.8,2471.388,13.29,0.055,67.6
2023-03-24T21:31:03,42.805,6.029,0.056,0.023,0.005,103.0,107.0,103.0,13.3,1505.2,317.9,-0.8,1.8,2471.384,13.29,0.06,67.7
2023-03-24T21:34:03,42.805,6.029,0.036,0.0,0.009,103.0,106.0,103.0,13.3,1505.2,327.7,-0.8,1.8,2471.365,13.29,0.036,90.0
2023-03-24T21:37:03,42.805,6.029,0.057,0.014,0.038,103.0,107.0,102.0,13.4,1505.2,319.4,-0.8,1.8,2471.376,13.28,0.058,76.2
2023-03-24T21:40:03,42.805,6.029,0.028,0.013,-0.007,102.0,107.0,103.0,13.4,1505.2,324.8,-0.8,1.8,2471.362,13.28,0.03,65.1
2023-03-24T21:43:03,42.805,6.029,0.016,0.011,-0.002,103.0,109.0,103.0,13.4,1505.2,324.5,-0.7,1.8,2471.369,13.28,0.019,55.5
2023-03-24T21:46:03,42.805,6.029,0.049,-0.005,0.013,102.0,108.0,103.0,13.4,1505.2,339.5,-0.8,1.8,2471.401,13.29,0.049,95.8
2023-03-24T21:49:03,42.805,6.029,0.025,0.0,-0.012,103.0,107.0,102.0,13.3,1505.2,321.3,-0.8,1.8,2471.335,13.29,0.025,90.0
2023-03-24T21:52:03,42.805,6.029,0.124,0.008,0.071,104.0,107.0,102.0,13.4,1505.2,331.7,-0.8,1.8,2471.374,13.29,0.124,86.3
2023-03-24T21:55:03,42.805,6.029,0.046,-0.007,-0.031,104.0,108.0,102.0,13.3,1505.2,337.6,-0.7,1.8,2471.395,13.29,0.046,98.7
2023-03-24T21:58:03,42.805,6.029,0.049,-0.012,-0.014,103.0,107.0,102.0,13.4,1505.2,335.2,-0.8,1.8,2471.423,13.28,0.05,103.8
2023-03-24T22:04:03,42.805,6.029,0.074,0.002,0.036,104.0,108.0,102.0,13.4,1505.2,339.1,-0.8,1.8,2471.398,13.28,0.074,88.5
2023-03-24T22:07:03,42.805,6.029,0.045,-0.007,-0.004,103.0,108.0,102.0,13.3,1505.2,318.6,-0.8,1.8,2471.45,13.28,0.045,98.8
2023-03-24T22:10:03,42.805,6.029,0.045,0.017,-0.01,104.0,106.0,103.0,13.3,1505.2,328.8,-0.8,1.8,2471.41,13.28,0.048,69.3
2023-03-24T22:13:03,42.805,6.029,0.066,0.009,0.04,104.0,108.0,102.0,13.3,1505.2,331.3,-0.8,1.8,2471.389,13.28,0.066,82.2
2023-03-24T22:16:03,42.805,6.029,0.066,-0.006,0.026,103.0,109.0,102.0,13.4,1505.2,341.5,-0.7,1.8,2471.398,13.28,0.066,95.2
2023-03-24T22:19:03,42.805,6.029,0.047,0.009,0.033,104.0,108.0,102.0,13.4,1505.2,322.6,-0.8,1.9,2471.379,13.28,0.047,79.2
2023-03-24T22:22:03,42.805,6.029,0.077,0.014,0.026,104.0,108.0,102.0,13.4,1505.2,331.2,-0.8,1.8,2471.343,13.28,0.078,79.7
2023-03-24T22:25:03,42.805,6.029,0.031,0.012,-0.016,103.0,108.0,103.0,13.4,1505.2,321.3,-0.8,1.8,2471.348,13.28,0.033,68.8
2023-03-24T22:28:03,42.805,6.029,0.022,0.019,-0.011,104.0,108.0,102.0,13.3,1505.2,332.2,-0.8,1.8,2471.384,13.28,0.029,49.2
2023-03-24T22:31:03,42.805,6.029,0.066,-0.002,0.015,102.0,108.0,102.0,13.4,1505.2,327.1,-0.8,1.8,2471.351,13.29,0.066,91.7
2023-03-24T22:34:03,42.805,6.029,0.043,0.017,-0.007,102.0,109.0,102.0,13.4,1505.2,325.5,-0.8,1.8,2471.34,13.29,0.046,68.4
2023-03-24T22:37:03,42.805,6.029,0.08,0.007,0.038,102.0,109.0,100.0,13.4,1505.2,326.0,-0.8,1.8,2471.387,13.28,0.08,85.0
2023-03-24T22:40:03,42.805,6.029,0.081,-0.003,0.028,103.0,109.0,102.0,13.4,1505.2,339.9,-0.8,1.8,2471.37,13.28,0.081,92.1
2023-03-24T22:43:03,42.805,6.029,0.028,0.008,0.0,102.0,108.0,102.0,13.4,1505.2,331.1,-0.8,1.8,2471.34,13.28,0.029,74.1
2023-03-24T22:46:03,42.805,6.029,0.071,0.0,0.038,103.0,108.0,101.0,13.4,1505.2,334.4,-0.8,1.8,2471.387,13.29,0.07,90.0
2023-03-24T22:49:03,42.805,6.029,0.025,0.005,-0.028,104.0,107.0,102.0,13.4,1505.2,319.0,-0.8,1.8,2471.37,13.28,0.025,78.7
2023-03-24T22:52:03,42.805,6.029,0.032,0.02,0.039,102.0,108.0,102.0,13.4,1505.2,331.5,-0.8,1.8,2471.363,13.28,0.037,58.0
2023-03-24T22:55:03,42.805,6.029,0.036,-0.002,-0.004,103.0,107.0,103.0,13.4,1505.2,323.8,-0.8,1.8,2471.32,13.29,0.036,93.2
2023-03-24T22:58:03,42.805,6.029,0.044,0.001,0.032,102.0,107.0,103.0,13.4,1505.2,340.9,-0.7,1.8,2471.33,13.28,0.044,88.7
2023-03-24T23:04:03,42.805,6.029,0.019,0.006,0.004,103.0,107.0,103.0,13.4,1505.2,322.7,-0.7,1.8,2471.357,13.28,0.019,72.5
2023-03-24T23:07:03,42.805,6.029,0.049,0.003,-0.011,105.0,109.0,102.0,13.4,1505.2,336.6,-0.8,1.8,2471.403,13.28,0.049,86.5
2023-03-24T23:10:03,42.805,6.029,0.025,-0.002,0.007,103.0,108.0,101.0,13.4,1505.2,326.3,-0.7,1.8,2471.386,13.28,0.025,94.6
2023-03-24T23:13:03,42.805,6.029,0.023,0.014,-0.015,103.0,109.0,102.0,13.4,1505.2,332.5,-0.8,1.8,2471.4,13.28,0.026,58.7
2023-03-24T23:16:03,42.805,6.029,0.042,-0.013,-0.016,103.0,109.0,102.0,13.4,1505.2,336.8,-0.8,1.8,2471.359,13.28,0.043,107.2
2023-03-24T23:19:03,42.805,6.029,0.06,0.03,0.008,103.0,108.0,102.0,13.4,1505.2,317.7,-0.8,1.8,2471.34,13.28,0.067,63.4
2023-03-24T23:22:03,42.805,6.029,0.072,-0.006,0.028,104.0,109.0,102.0,13.4,1505.2,337.2,-0.8,1.8,2471.37,13.28,0.072,94.8
2023-03-24T23:25:03,42.805,6.029,0.02,0.021,0.02,103.0,107.0,101.0,13.4,1505.2,316.1,-0.8,1.8,2471.341,13.28,0.028,43.6
2023-03-24T23:28:03,42.805,6.029,0.052,0.0,0.0,104.0,107.0,102.0,13.4,1505.2,327.8,-0.8,1.8,2471.352,13.28,0.052,90.0
2023-03-24T23:31:03,42.805,6.029,0.076,0.008,0.043,103.0,107.0,102.0,13.3,1505.2,326.0,-0.7,1.8,2471.328,13.28,0.076,84.0
2023-03-24T23:34:03,42.805,6.029,0.041,0.027,0.02,102.0,108.0,102.0,13.4,1505.2,329.3,-0.8,1.8,2471.324,13.28,0.049,56.6
2023-03-24T23:37:03,42.805,6.029,0.072,-0.003,0.03,102.0,107.0,103.0,13.4,1505.2,339.6,-0.8,1.8,2471.336,13.28,0.072,92.4
2023-03-24T23:40:03,42.805,6.029,0.077,-0.009,0.029,103.0,107.0,102.0,13.4,1505.2,331.5,-0.8,1.8,2471.353,13.29,0.077,96.7
2023-03-24T23:43:03,42.805,6.029,0.024,0.02,0.013,103.0,107.0,102.0,13.4,1505.2,321.3,-0.7,1.8,2471.346,13.29,0.031,50.2
2023-03-24T23:46:03,42.805,6.029,0.047,-0.01,0.004,103.0,106.0,102.0,13.4,1505.2,325.2,-0.8,1.8,2471.35,13.29,0.048,102.0
2023-03-24T23:49:03,42.805,6.029,0.058,0.02,-0.007,103.0,108.0,102.0,13.3,1505.2,326.5,-0.8,1.8,2471.322,13.29,0.061,71.0
2023-03-24T23:52:03,42.805,6.029,0.06,0.003,0.024,102.0,108.0,102.0,13.3,1505.2,338.3,-0.8,1.8,2471.304,13.29,0.06,87.1
2023-03-24T23:55:03,42.805,6.029,0.034,0.01,0.023,104.0,108.0,101.0,13.4,1505.2,327.7,-0.8,1.8,2471.308,13.28,0.035,73.6
2023-03-24T23:58:03,42.805,6.029,0.015,-0.013,-0.023,103.0,108.0,102.0,13.4,1505.2,330.6,-0.8,1.8,2471.316,13.29,0.019,130.9
